Total_Precipitation_Accumulation
0.00 0.00 0.00 0.01 0.02 0.06 0.11 0.14 0.21 0.30 0.45 0.48 0.52 0.58 0.57 0.62 0.90 1.42 0.80 0.51 0.35 0.23 0.13 0.08 0.09 0.09 0.10 0.13 0.18 0.22 0.20 0.19 0.18 0.18 0.17 0.17 0.16 0.16 0.18 0.18 0.20 0.27 0.31 0.29 0.27 0.29 0.28 0.25 0.20
0.00 0.01 0.01 0.01 0.04 0.09 0.16 0.25 0.34 0.35 0.41 0.47 0.52 0.52 0.45 0.43 0.41 0.44 0.49 0.46 0.32 0.21 0.16 0.10 0.09 0.10 0.09 0.11 0.14 0.20 0.22 0.23 0.24 0.25 0.21 0.18 0.18 0.19 0.19 0.19 0.21 0.25 0.27 0.24 0.22 0.21 0.19 0.16 0.15
0.01 0.01 0.02 0.03 0.04 0.07 0.20 0.30 0.40 0.40 0.47 0.49 0.60 0.62 0.59 0.55 0.49 0.50 0.51 0.42 0.30 0.23 0.22 0.16 0.13 0.12 0.11 0.11 0.15 0.21 0.25 0.27 0.28 0.28 0.25 0.21 0.18 0.18 0.21 0.25 0.28 0.29 0.29 0.30 0.29 0.24 0.17 0.14 0.15
0.01 0.01 0.03 0.04 0.05 0.09 0.15 0.27 0.39 0.49 0.60 0.54 0.58 0.63 0.59 0.60 0.56 0.55 0.53 0.45 0.28 0.23 0.21 0.18 0.20 0.17 0.15 0.15 0.17 0.24 0.30 0.31 0.29 0.29 0.28 0.26 0.22 0.21 0.26 0.33 0.36 0.35 0.34 0.38 0.42 0.36 0.27 0.20 0.18
0.01 0.02 0.03 0.04 0.08 0.13 0.21 0.29 0.38 0.58 0.62 0.53 0.57 0.75 0.88 0.91 0.75 0.65 0.58 0.52 0.39 0.30 0.27 0.26 0.29 0.27 0.25 0.22 0.26 0.32 0.36 0.38 0.39 0.36 0.35 0.35 0.29 0.26 0.31 0.39 0.42 0.43 0.41 0.41 0.38 0.31 0.26 0.23 0.22
0.01 0.02 0.03 0.06 0.14 0.17 0.24 0.34 0.40 0.52 0.62 0.58 0.64 0.89 1.23 1.32 1.11 0.93 0.70 0.71 0.60 0.45 0.37 0.37 0.38 0.41 0.42 0.40 0.42 0.43 0.40 0.41 0.42 0.42 0.43 0.40 0.32 0.30 0.34 0.41 0.49 0.55 0.51 0.44 0.37 0.30 0.24 0.23 0.23
0.01 0.01 0.03 0.06 0.16 0.22 0.24 0.29 0.44 0.57 0.71 0.80 0.78 0.96 1.23 1.36 1.21 1.00 0.94 0.93 0.84 0.77 0.68 0.55 0.50 0.49 0.50 0.51 0.51 0.51 0.50 0.47 0.46 0.45 0.44 0.43 0.40 0.36 0.42 0.49 0.54 0.54 0.48 0.43 0.39 0.33 0.29 0.25 0.23
0.01 0.02 0.05 0.08 0.18 0.23 0.26 0.35 0.53 0.63 0.79 0.84 0.75 0.98 1.40 1.44 1.19 1.11 1.19 1.16 1.14 1.32 1.57 1.09 0.73 0.62 0.55 0.53 0.58 0.62 0.64 0.63 0.57 0.53 0.49 0.47 0.48 0.50 0.56 0.56 0.57 0.56 0.49 0.43 0.42 0.38 0.34 0.30 0.27
0.02 0.02 0.05 0.12 0.19 0.25 0.29 0.37 0.45 0.48 0.67 0.68 0.60 0.75 1.25 1.28 1.12 1.17 1.37 1.56 1.45 1.62 1.87 1.32 0.99 0.87 0.82 0.81 0.74 0.78 0.79 0.78 0.74 0.69 0.63 0.63 0.72 0.91 0.93 0.73 0.75 0.65 0.58 0.53 0.51 0.47 0.42 0.40 0.37
0.02 0.04 0.08 0.10 0.14 0.23 0.33 0.33 0.43 0.56 0.68 0.71 0.61 0.62 0.90 1.24 1.34 1.35 1.49 1.97 1.99 1.76 1.59 1.55 1.47 1.26 1.13 1.11 1.18 1.17 1.04 1.02 0.93 1.01 0.89 0.97 1.32 1.42 1.23 1.18 1.06 0.90 0.77 0.69 0.68 0.69 0.62 0.53 0.50
0.02 0.05 0.09 0.14 0.19 0.31 0.38 0.45 0.56 0.79 0.86 0.86 0.87 0.91 1.21 1.43 1.57 1.68 1.77 2.07 2.40 2.46 1.98 1.78 1.69 1.59 1.46 1.56 1.71 1.73 1.64 1.57 1.38 1.44 1.31 1.39 1.52 1.47 1.47 1.52 1.37 1.27 1.14 1.13 1.14 0.97 0.79 0.74 0.80
0.05 0.07 0.08 0.21 0.27 0.30 0.43 0.48 0.53 0.72 0.95 1.00 1.06 1.27 1.62 1.69 1.77 2.05 2.13 2.37 2.55 2.73 2.54 2.05 1.95 1.99 2.13 2.21 2.11 2.01 2.02 1.97 1.82 1.83 1.67 1.75 1.87 1.91 1.82 1.91 1.81 1.83 1.71 1.70 1.55 1.40 1.22 1.10 0.98
0.08 0.14 0.12 0.18 0.24 0.30 0.36 0.52 0.54 0.63 0.67 0.85 0.98 1.28 1.60 1.43 1.70 2.09 2.17 2.52 2.73 2.66 2.47 2.23 2.28 2.35 2.41 2.39 2.43 2.30 2.24 2.37 2.35 2.36 2.24 2.22 2.16 2.10 2.10 2.09 2.12 2.03 2.11 2.12 2.02 1.75 1.57 1.42 1.23
0.09 0.09 0.10 0.14 0.17 0.24 0.29 0.41 0.46 0.55 0.58 0.70 0.84 1.02 1.28 1.45 1.67 1.97 2.23 2.64 2.63 2.51 2.56 2.50 2.64 2.49 2.41 2.52 2.70 2.66 2.49 2.69 2.88 3.03 2.93 2.66 2.54 2.48 2.47 2.56 2.54 2.29 2.28 2.36 2.39 2.22 1.99 1.70 1.49
0.11 0.09 0.11 0.13 0.13 0.15 0.21 0.38 0.44 0.43 0.49 0.53 0.67 0.80 1.01 1.37 1.63 2.07 2.37 2.72 2.71 2.64 2.62 2.72 2.60 2.73 2.83 2.94 2.92 2.84 2.82 2.90 3.04 3.18 3.25 2.96 2.71 2.77 2.76 2.91 2.89 2.56 2.46 2.57 2.67 2.62 2.43 2.03 1.75
0.11 0.12 0.15 0.15 0.14 0.16 0.24 0.49 0.60 0.55 0.52 0.54 0.62 0.67 0.90 1.31 1.60 1.99 2.26 2.52 2.55 2.69 2.99 2.98 2.63 2.90 3.04 3.07 3.06 2.93 2.98 3.18 3.32 3.31 3.39 3.22 2.90 2.82 2.91 2.85 2.70 2.62 2.67 2.89 3.07 2.98 2.86 2.57 2.30
0.13 0.14 0.17 0.18 0.19 0.19 0.26 0.49 0.67 0.61 0.56 0.62 0.63 0.72 0.91 1.18 1.56 1.88 2.22 2.59 2.71 2.97 3.38 3.14 2.76 2.89 3.02 3.18 3.30 3.10 3.13 3.44 3.62 3.66 3.51 3.18 2.93 2.94 3.09 3.11 3.06 2.99 3.01 3.08 2.98 3.11 2.94 2.96 2.77
0.14 0.16 0.26 0.26 0.26 0.26 0.30 0.41 0.59 0.73 0.70 0.75 0.76 0.86 1.06 1.14 1.28 1.51 1.98 2.48 2.81 3.26 3.78 3.39 2.92 2.95 3.23 3.26 3.21 3.22 3.35 3.62 3.88 3.82 3.59 3.34 3.27 3.24 3.35 3.31 3.37 3.43 3.47 3.31 3.21 3.19 3.00 2.86 2.77
0.11 0.14 0.25 0.35 0.30 0.32 0.40 0.51 0.65 0.84 0.85 0.78 0.90 1.09 1.06 1.04 1.16 1.34 1.83 2.39 2.78 3.23 3.54 3.49 3.27 3.31 3.43 3.48 3.30 3.47 3.69 3.96 4.20 4.13 4.01 3.93 3.86 3.82 3.83 3.85 3.83 3.71 3.62 3.47 3.28 3.14 3.01 2.80 2.60
0.08 0.12 0.20 0.34 0.29 0.32 0.43 0.63 0.84 0.91 1.01 1.05 1.05 1.23 1.12 1.10 1.23 1.50 1.96 2.28 2.68 3.00 3.14 3.41 3.50 3.53 3.36 3.66 3.90 4.11 4.39 4.52 4.79 5.04 5.11 4.97 4.73 4.51 4.30 4.24 4.04 3.73 3.54 3.40 3.20 3.05 2.90 2.64 2.49
0.06 0.10 0.17 0.24 0.24 0.28 0.41 0.82 0.98 1.10 1.11 1.24 1.34 1.49 1.42 1.38 1.50 1.79 2.08 2.23 2.47 2.87 3.11 3.38 3.66 3.77 3.68 4.09 4.58 4.97 5.23 5.22 5.30 5.35 5.40 5.37 4.96 4.58 4.28 3.98 3.81 3.62 3.43 3.26 3.16 3.03 2.90 2.67 2.50
0.06 0.07 0.10 0.13 0.19 0.34 0.37 0.76 1.05 1.24 1.32 1.29 1.49 1.58 1.55 1.37 1.39 1.68 1.95 2.30 2.37 2.67 2.96 3.21 3.55 3.93 4.21 4.60 5.06 5.60 5.85 5.95 5.86 5.56 5.31 5.01 4.60 4.23 3.79 3.56 3.54 3.38 3.17 2.99 2.77 2.63 2.57 2.50 2.41
0.05 0.04 0.08 0.11 0.15 0.28 0.36 0.62 1.05 1.26 1.32 1.35 1.46 1.47 1.50 1.42 1.37 1.52 1.66 1.96 2.22 2.49 2.75 3.03 3.35 3.76 4.39 5.14 5.66 6.04 6.30 6.22 5.79 5.30 4.71 4.26 3.94 3.64 3.36 3.16 3.18 3.09 2.84 2.61 2.37 2.18 2.09 2.09 2.15
0.03 0.04 0.09 0.12 0.17 0.38 0.35 0.58 1.15 1.33 1.39 1.50 1.45 1.43 1.52 1.50 1.49 1.59 1.69 1.93 2.13 2.26 2.48 2.81 3.22 3.53 4.04 4.76 5.38 5.66 5.83 5.73 5.33 4.71 4.17 3.80 3.41 3.08 2.77 2.51 2.39 2.28 2.13 2.02 1.92 1.80 1.74 1.73 1.83
0.03 0.09 0.25 0.36 0.40 0.40 0.33 0.60 1.19 1.35 1.41 1.49 1.55 1.62 1.68 1.67 1.62 1.61 1.62 1.75 1.94 2.06 2.24 2.51 2.81 3.19 3.51 3.91 4.49 4.59 4.63 4.44 4.04 3.77 3.54 3.17 2.78 2.44 2.15 1.96 1.85 1.78 1.73 1.67 1.64 1.60 1.55 1.46 1.49
0.04 0.09 0.31 0.46 0.49 0.52 0.58 0.99 1.51 1.46 1.45 1.46 1.47 1.45 1.49 1.55 1.44 1.46 1.45 1.65 1.87 2.07 2.21 2.32 2.51 2.85 3.15 3.24 3.36 3.33 3.25 3.17 2.99 2.76 2.50 2.26 2.04 1.89 1.77 1.63 1.53 1.49 1.49 1.45 1.45 1.42 1.33 1.25 1.22
0.03 0.06 0.14 0.22 0.32 0.52 0.84 1.32 1.76 1.87 1.71 1.53 1.50 1.39 1.35 1.35 1.30 1.36 1.38 1.48 1.67 1.93 2.04 2.10 2.15 2.28 2.29 2.30 2.32 2.32 2.31 2.18 2.12 2.05 1.84 1.69 1.57 1.46 1.44 1.39 1.34 1.25 1.18 1.12 1.11 1.09 1.08 1.10 1.11
0.04 0.06 0.11 0.22 0.42 0.68 1.01 1.53 1.96 2.16 1.99 1.61 1.42 1.30 1.26 1.30 1.31 1.32 1.37 1.43 1.41 1.47 1.56 1.67 1.77 1.85 1.78 1.71 1.64 1.67 1.68 1.59 1.49 1.40 1.33 1.24 1.18 1.13 1.15 1.11 1.06 1.05 1.06 0.99 0.91 0.87 0.90 0.93 0.97
0.07 0.09 0.13 0.24 0.32 0.58 1.10 1.72 1.86 2.19 2.16 1.85 1.56 1.36 1.34 1.37 1.34 1.29 1.30 1.29 1.21 1.15 1.16 1.27 1.40 1.53 1.53 1.43 1.38 1.38 1.37 1.32 1.23 1.16 1.09 1.04 1.00 0.96 0.93 0.92 0.89 0.87 0.87 0.86 0.87 0.84 0.84 0.89 0.90
0.12 0.14 0.19 0.38 0.43 0.46 0.99 1.91 1.91 1.98 2.10 2.05 1.86 1.66 1.50 1.41 1.32 1.25 1.22 1.26 1.19 1.11 1.04 1.11 1.18 1.15 1.19 1.20 1.24 1.28 1.23 1.19 1.14 1.09 1.04 1.00 0.90 0.85 0.82 0.83 0.79 0.72 0.70 0.74 0.79 0.81 0.80 0.88 0.87